,,PA_Meas_PMT16A,,PR_Meas_QMR101_102,,RH_Meas_QMH101,,SR_Meas_QMS101,,TA_Meas_QMH101,,GenWind,,GenWind,
time,status,PA,status,PR,status,RH,status,SR,status,TA,status,DirAvg,status,SpdAvg,
2011-09-14, 00:00:04,VALID,917.465,VALID,0,VALID,89.8953,VALID,0,VALID,21.125,VALID,130,VALID,0.695313,
2011-09-14, 00:01:04,VALID,917.444,VALID,0,VALID,89.6666,VALID,0,VALID,21.1461,VALID,130,VALID,0.771484,
2011-09-14, 00:02:04,VALID,917.445,VALID,0,VALID,89.781,VALID,0,VALID,21.1461,VALID,130,VALID,0.790234,
2011-09-14, 00:03:04,VALID,917.464,VALID,0,VALID,89.8648,VALID,0.107441,VALID,21.1055,VALID,130,VALID,0.550391,
2011-09-14, 00:04:04,VALID,917.459,VALID,0,VALID,89.8725,VALID,0,VALID,21.1055,VALID,130,VALID,0.510547,
2011-09-14, 00:05:04,VALID,917.459,VALID,0,VALID,89.8496,VALID,0,VALID,21.0665,VALID,130,VALID,0.400781,
2011-09-14, 00:06:04,VALID,917.461,VALID,0,VALID,90.2003,VALID,0,VALID,21.0291,VALID,130,VALID,0.626562,
2011-09-14, 00:07:04,VALID,917.453,VALID,0,VALID,90.2536,VALID,0,VALID,21.0275,VALID,130,VALID,0.278906,
2011-09-14, 00:08:04,VALID,917.428,VALID,0,VALID,90.4137,VALID,0,VALID,21.0681,VALID,130,VALID,0,
2011-09-14, 00:09:04,VALID,917.402,VALID,0,VALID,90.4213,VALID,0,VALID,21.0486,VALID,130,VALID,0.576563,
2011-09-14, 00:10:04,VALID,917.399,VALID,0,VALID,90.6882,VALID,0,VALID,21.0275,VALID,130,VALID,0.223047,
2011-09-14, 00:11:04,VALID,917.427,VALID,0,VALID,91.0846,VALID,0,VALID,21.0275,VALID,130,VALID,0.0359375,
2011-09-14, 00:12:04,VALID,917.387,VALID,0,VALID,91.1151,VALID,0,VALID,20.9495,VALID,130,VALID,0,
2011-09-14, 00:13:04,VALID,917.358,VALID,0,VALID,91.6106,VALID,0,VALID,20.891,VALID,130,VALID,0.444531,
2011-09-14, 00:14:04,VALID,917.378,VALID,0,VALID,92.6626,VALID,0,VALID,20.8519,VALID,130,VALID,0.477344,
2011-09-14, 00:15:04,VALID,917.354,VALID,0,VALID,93.181,VALID,0,VALID,20.8129,VALID,130,VALID,0.326953,
2011-09-14, 00:16:04,VALID,917.349,VALID,0,VALID,93.4326,VALID,0,VALID,20.7739,VALID,130,VALID,0.189844,
2011-09-14, 00:17:04,VALID,917.356,VALID,0,VALID,93.6155,VALID,0,VALID,20.756,VALID,130,VALID,0,
2011-09-14, 00:18:04,VALID,917.346,VALID,0,VALID,93.7909,VALID,0,VALID,20.7154,VALID,130,VALID,0,
2011-09-14, 00:19:04,VALID,917.347,VALID,0,VALID,93.8824,VALID,0,VALID,20.717,VALID,130,VALID,0,
2011-09-14, 00:20:04,VALID,917.325,VALID,0,VALID,93.9434,VALID,0,VALID,20.6975,VALID,130,VALID,0.0992187,
2011-09-14, 00:21:04,VALID,917.363,VALID,0,VALID,93.9434,VALID,0,VALID,20.639,VALID,130,VALID,0.405078,
2011-09-14, 00:22:04,VALID,917.302,VALID,0,VALID,94.1034,VALID,0,VALID,20.5999,VALID,130,VALID,0.0367187,
2011-09-14, 00:23:04,VALID,917.303,VALID,0,VALID,94.1568,VALID,0,VALID,20.5984,VALID,130,VALID,0.849219,
2011-09-14, 00:24:04,VALID,917.297,VALID,0,VALID,94.0272,VALID,0,VALID,20.5399,VALID,130,VALID,0.590234,
2011-09-14, 00:25:04,VALID,917.274,VALID,0,VALID,94.0348,VALID,0,VALID,20.5204,VALID,130,VALID,0.267578,
2011-09-14, 00:26:04,VALID,917.263,VALID,0,VALID,94.0348,VALID,0,VALID,20.5414,VALID,130,VALID,0,
2011-09-14, 00:27:04,VALID,917.246,VALID,0,VALID,93.9662,VALID,0,VALID,20.5219,VALID,130,VALID,0.180859,
2011-09-14, 00:28:04,VALID,917.227,VALID,0,VALID,93.8824,VALID,0,VALID,20.5414,VALID,130,VALID,0.222656,
2011-09-14, 00:29:04,VALID,917.189,VALID,0,VALID,93.6613,VALID,0,VALID,20.5804,VALID,130,VALID,0.333984,
2011-09-14, 00:30:04,VALID,917.219,VALID,0,VALID,93.3335,VALID,0,VALID,20.5789,VALID,130,VALID,0.415234,
2011-09-14, 00:31:04,VALID,917.204,VALID,0,VALID,92.9981,VALID,0,VALID,20.5984,VALID,130,VALID,0.4125,
2011-09-14, 00:32:04,VALID,917.172,VALID,0,VALID,92.8685,VALID,0,VALID,20.5984,VALID,139,VALID,0.750781,
2011-09-14, 00:33:04,VALID,917.171,VALID,0,VALID,92.4949,VALID,0,VALID,20.6585,VALID,140,VALID,0.297656,
2011-09-14, 00:34:04,VALID,917.171,VALID,0,VALID,91.664,VALID,0,VALID,20.7755,VALID,140,VALID,0.364844,
2011-09-14, 00:35:04,VALID,917.173,VALID,0,VALID,91.016,VALID,0,VALID,20.891,VALID,140,VALID,0.310156,
2011-09-14, 00:36:04,VALID,917.151,VALID,0,VALID,90.3299,VALID,0,VALID,20.9495,VALID,140,VALID,0.502734,
2011-09-14, 00:37:04,VALID,917.17,VALID,0,VALID,89.7962,VALID,0,VALID,21.0486,VALID,140,VALID,0.252344,
2011-09-14, 00:38:04,VALID,917.12,VALID,0,VALID,89.659,VALID,0,VALID,21.047,VALID,140,VALID,0.362109,
2011-09-14, 00:39:04,VALID,917.122,VALID,0,VALID,89.3083,VALID,0,VALID,21.086,VALID,140,VALID,0.400391,
2011-09-14, 00:40:04,VALID,917.116,VALID,0,VALID,88.7671,VALID,0,VALID,21.2047,VALID,140,VALID,0.291406,
2011-09-14, 00:41:04,VALID,917.109,VALID,0,VALID,88.4392,VALID,0,VALID,21.2242,VALID,140,VALID,0.00585938,
2011-09-14, 00:42:04,VALID,917.104,VALID,0,VALID,88.5079,VALID,0,VALID,21.1852,VALID,140,VALID,0.51875,
2011-09-14, 00:43:04,VALID,917.089,VALID,0,VALID,88.607,VALID,0,VALID,21.1852,VALID,140,VALID,0.253125,
2011-09-14, 00:44:04,VALID,917.078,VALID,0,VALID,88.8509,VALID,0,VALID,21.164,VALID,140,VALID,0.839063,
2011-09-14, 00:45:04,VALID,917.083,VALID,0,VALID,88.4088,VALID,0,VALID,21.164,VALID,140,VALID,1.3293,
2011-09-14, 00:46:04,VALID,917.096,VALID,0,VALID,87.7226,VALID,0,VALID,21.3608,VALID,140,VALID,0.593359,
2011-09-14, 00:47:04,VALID,917.083,VALID,0,VALID,87.3948,VALID,0,VALID,21.4372,VALID,140,VALID,0.865625,
2011-09-14, 00:48:04,VALID,917.109,VALID,0,VALID,87.2576,VALID,0,VALID,21.4388,VALID,140,VALID,0.708203,
2011-09-14, 00:49:04,VALID,917.121,VALID,0,VALID,87.7836,VALID,0,VALID,21.3803,VALID,140,VALID,0.887109,
2011-09-14, 00:50:04,VALID,917.09,VALID,0,VALID,88.4011,VALID,0,VALID,21.2616,VALID,140,VALID,0.569141,
2011-09-14, 00:51:04,VALID,917.103,VALID,0,VALID,88.7518,VALID,0,VALID,21.1836,VALID,140,VALID,0.510938,
2011-09-14, 00:52:04,VALID,917.109,VALID,0,VALID,89.1406,VALID,0,VALID,21.1461,VALID,140,VALID,0.45,
2011-09-14, 00:53:04,VALID,917.132,VALID,0,VALID,89.2854,VALID,0,VALID,21.0665,VALID,140,VALID,0.290234,
2011-09-14, 00:54:04,VALID,917.156,VALID,0,VALID,89.6666,VALID,0,VALID,21.008,VALID,140,VALID,0.127734,
2011-09-14, 00:55:04,VALID,917.143,VALID,0,VALID,89.9029,VALID,0,VALID,20.9901,VALID,140,VALID,0.705078,
2011-09-14, 00:56:04,VALID,917.171,VALID,0,VALID,90.0707,VALID,0,VALID,20.9511,VALID,140,VALID,0.987891,
2011-09-14, 00:57:04,VALID,917.171,VALID,0,VALID,90.1774,VALID,0,VALID,20.93,VALID,140,VALID,0.523828,
2011-09-14, 00:58:04,VALID,917.194,VALID,0,VALID,90.0478,VALID,0,VALID,20.9901,VALID,140,VALID,0.752344,
2011-09-14, 00:59:04,VALID,917.195,VALID,0,VALID,89.72,VALID,0,VALID,21.0275,VALID,140,VALID,0.416016,
2011-09-14, 01:00:04,VALID,917.214,VALID,0,VALID,89.4913,VALID,0,VALID,21.1266,VALID,140,VALID,0.233203,
2011-09-14, 01:01:04,VALID,917.21,VALID,0,VALID,89.3312,VALID,0,VALID,21.1445,VALID,140,VALID,0.28125,
2011-09-14, 01:02:04,VALID,917.214,VALID,0,VALID,89.0949,VALID,0,VALID,21.1852,VALID,140,VALID,0.278125,
2011-09-14, 01:03:04,VALID,917.217,VALID,0,VALID,89.0415,VALID,0.107441,VALID,21.2047,VALID,140,VALID,0.555859,
2011-09-14, 01:04:04,VALID,917.231,VALID,0,VALID,88.8052,VALID,0,VALID,21.2226,VALID,140,VALID,0.723437,
2011-09-14, 01:05:04,VALID,917.244,VALID,0,VALID,88.7061,VALID,0,VALID,21.2827,VALID,140,VALID,0.815234,
2011-09-14, 01:06:04,VALID,917.205,VALID,0,VALID,89.0034,VALID,0.107441,VALID,21.3217,VALID,140,VALID,0.441797,
2011-09-14, 01:07:04,VALID,917.224,VALID,0,VALID,89.7352,VALID,0,VALID,21.2437,VALID,140,VALID,1.03477,
2011-09-14, 01:08:04,VALID,917.209,VALID,0,VALID,90.4976,VALID,0,VALID,21.125,VALID,141,VALID,0.834375,
2011-09-14, 01:09:04,VALID,917.242,VALID,0,VALID,91.1837,VALID,0,VALID,21.0291,VALID,141,VALID,1.04102,
2011-09-14, 01:10:04,VALID,917.222,VALID,0,VALID,92.0146,VALID,0,VALID,20.873,VALID,141,VALID,1.12695,
2011-09-14, 01:11:04,VALID,917.265,VALID,0,VALID,92.8456,VALID,0,VALID,20.7365,VALID,144,VALID,1.36953,
2011-09-14, 01:12:04,VALID,917.252,VALID,0,VALID,93.7223,VALID,0,VALID,20.639,VALID,260,VALID,1.32656,
2011-09-14, 01:13:04,VALID,917.258,VALID,0,VALID,94.3626,VALID,0,VALID,20.5609,VALID,260,VALID,0.925391,
2011-09-14, 01:14:04,VALID,917.27,VALID,0,VALID,94.7819,VALID,0,VALID,20.5414,VALID,260,VALID,0.671484,
2011-09-14, 01:15:04,VALID,917.311,VALID,0,VALID,95.1021,VALID,0,VALID,20.5235,VALID,260,VALID,0.667969,
2011-09-14, 01:16:04,VALID,917.289,VALID,0,VALID,95.2546,VALID,0,VALID,20.5024,VALID,260,VALID,1.03828,
2011-09-14, 01:17:04,VALID,917.31,VALID,0,VALID,95.4071,VALID,0,VALID,20.4439,VALID,261,VALID,0.695703,
2011-09-14, 01:18:04,VALID,917.321,VALID,0,VALID,95.5519,VALID,0,VALID,20.4244,VALID,261,VALID,0.517578,
2011-09-14, 01:19:04,VALID,917.33,VALID,0,VALID,95.6815,VALID,0,VALID,20.4049,VALID,260,VALID,0.801953,
2011-09-14, 01:20:04,VALID,917.359,VALID,0,VALID,95.7882,VALID,0,VALID,20.4049,VALID,260,VALID,0.710547,
2011-09-14, 01:21:04,VALID,917.355,VALID,0,VALID,95.8721,VALID,0,VALID,20.4259,VALID,260,VALID,0.946094,
2011-09-14, 01:22:04,VALID,917.372,VALID,0,VALID,95.895,VALID,0,VALID,20.4244,VALID,260,VALID,0.888281,
2011-09-14, 01:23:04,VALID,917.389,VALID,0,VALID,95.9636,VALID,0,VALID,20.3854,VALID,260,VALID,1.01367,
2011-09-14, 01:24:04,VALID,917.357,VALID,0,VALID,96.0093,VALID,0,VALID,20.3869,VALID,260,VALID,0.627344,
2011-09-14, 01:25:04,VALID,917.39,VALID,0,VALID,96.0703,VALID,0,VALID,20.4049,VALID,260,VALID,0.367578,
2011-09-14, 01:26:04,VALID,917.406,VALID,0,VALID,96.1008,VALID,0,VALID,20.4454,VALID,260,VALID,0.579297,
2011-09-14, 01:27:04,VALID,917.378,VALID,0,VALID,96.1618,VALID,0,VALID,20.3659,VALID,260,VALID,0.653516,
2011-09-14, 01:28:04,VALID,917.351,VALID,0,VALID,96.2075,VALID,0,VALID,20.3659,VALID,260,VALID,0.696875,
2011-09-14, 01:29:04,VALID,917.348,VALID,0,VALID,96.299,VALID,0,VALID,20.4049,VALID,260,VALID,0.824219,
2011-09-14, 01:30:04,VALID,917.357,VALID,0,VALID,96.3447,VALID,0,VALID,20.465,VALID,261,VALID,0.448438,
2011-09-14, 01:31:04,VALID,917.342,VALID,0,VALID,96.3447,VALID,0,VALID,20.4634,VALID,261,VALID,0.40625,
2011-09-14, 01:32:04,VALID,917.341,VALID,0,VALID,96.3676,VALID,0,VALID,20.4454,VALID,261,VALID,0.383203,
2011-09-14, 01:33:04,VALID,917.357,VALID,0,VALID,96.3676,VALID,0,VALID,20.4244,VALID,261,VALID,0.284375,
2011-09-14, 01:34:04,VALID,917.31,VALID,0,VALID,96.421,VALID,0,VALID,20.4244,VALID,261,VALID,0.370703,
2011-09-14, 01:35:04,VALID,917.331,VALID,0,VALID,96.3905,VALID,0,VALID,20.4049,VALID,261,VALID,0.590234,
2011-09-14, 01:36:04,VALID,917.342,VALID,0,VALID,96.4057,VALID,0,VALID,20.4049,VALID,262,VALID,0.620313,
2011-09-14, 01:37:04,VALID,917.316,VALID,0,VALID,96.4515,VALID,0,VALID,20.4064,VALID,261,VALID,0.31875,
2011-09-14, 01:38:04,VALID,917.334,VALID,0,VALID,96.421,VALID,0,VALID,20.3854,VALID,261,VALID,0.441797,
2011-09-14, 01:39:04,VALID,917.341,VALID,0,VALID,96.4819,VALID,0,VALID,20.3854,VALID,261,VALID,0.532031,
2011-09-14, 01:40:04,VALID,917.341,VALID,0,VALID,96.5124,VALID,0,VALID,20.4049,VALID,261,VALID,0,
2011-09-14, 01:41:04,VALID,917.334,VALID,0,VALID,96.4972,VALID,0,VALID,20.3854,VALID,261,VALID,0.127344,
2011-09-14, 01:42:04,VALID,917.36,VALID,0,VALID,96.5353,VALID,0,VALID,20.3448,VALID,261,VALID,0.422266,
2011-09-14, 01:43:04,VALID,917.353,VALID,0,VALID,96.6039,VALID,0,VALID,20.4049,VALID,261,VALID,0.66875,
2011-09-14, 01:44:04,VALID,917.357,VALID,0,VALID,96.5963,VALID,0,VALID,20.4244,VALID,262,VALID,0.919531,
2011-09-14, 01:45:04,VALID,917.335,VALID,0,VALID,96.5734,VALID,0,VALID,20.3854,VALID,261,VALID,0.900781,
2011-09-14, 01:46:04,VALID,917.319,VALID,0,VALID,96.6039,VALID,0,VALID,20.3659,VALID,333,VALID,1.175,
2011-09-14, 01:47:04,VALID,917.292,VALID,0,VALID,96.6497,VALID,0,VALID,20.3854,VALID,26,VALID,0.965625,
2011-09-14, 01:48:04,VALID,917.27,VALID,0,VALID,96.6802,VALID,0,VALID,20.3854,VALID,26,VALID,0.522266,
2011-09-14, 01:49:04,VALID,917.247,VALID,0,VALID,96.6954,VALID,0,VALID,20.3854,VALID,26,VALID,0.473437,
2011-09-14, 01:50:04,VALID,917.203,VALID,0,VALID,96.7107,VALID,0,VALID,20.3643,VALID,26,VALID,0.443359,
2011-09-14, 01:51:04,VALID,917.217,VALID,0,VALID,96.703,VALID,0,VALID,20.4049,VALID,26,VALID,0.31875,
2011-09-14, 01:52:04,VALID,917.202,VALID,0,VALID,96.7488,VALID,0,VALID,20.4244,VALID,26,VALID,0.428516,
2011-09-14, 01:53:04,VALID,917.175,VALID,0,VALID,96.7564,VALID,0,VALID,20.4244,VALID,26,VALID,0.19375,
2011-09-14, 01:54:04,VALID,917.173,VALID,0,VALID,96.7869,VALID,0.107441,VALID,20.4228,VALID,26,VALID,0,
2011-09-14, 01:55:04,VALID,917.162,VALID,0,VALID,96.8174,VALID,0,VALID,20.4634,VALID,26,VALID,0.0230469,
2011-09-14, 01:56:04,VALID,917.18,VALID,0,VALID,96.8021,VALID,0,VALID,20.4829,VALID,26,VALID,0.330078,
2011-09-14, 01:57:04,VALID,917.152,VALID,0,VALID,96.7564,VALID,0,VALID,20.4228,VALID,26,VALID,0.800781,
2011-09-14, 01:58:04,VALID,917.175,VALID,0,VALID,96.8174,VALID,0,VALID,20.4634,VALID,26,VALID,0.410156,
2011-09-14, 01:59:04,VALID,917.161,VALID,0,VALID,96.825,VALID,0,VALID,20.4829,VALID,26,VALID,0.350391,
2011-09-14, 02:00:04,VALID,917.199,VALID,0,VALID,96.7869,VALID,0,VALID,20.4829,VALID,26,VALID,0.487891,
2011-09-14, 02:01:04,VALID,917.164,VALID,0,VALID,96.8326,VALID,0,VALID,20.4439,VALID,26,VALID,0.355859,
2011-09-14, 02:02:04,VALID,917.178,VALID,0,VALID,96.8174,VALID,0,VALID,20.4423,VALID,26,VALID,0.314453,
2011-09-14, 02:03:04,VALID,917.164,VALID,0,VALID,96.825,VALID,0.107441,VALID,20.4423,VALID,26,VALID,0.253516,
2011-09-14, 02:04:04,VALID,917.166,VALID,0,VALID,96.8098,VALID,0,VALID,20.4634,VALID,26,VALID,0.447656,
2011-09-14, 02:05:04,VALID,917.176,VALID,0,VALID,96.8479,VALID,0,VALID,20.4829,VALID,26,VALID,0.102734,
2011-09-14, 02:06:04,VALID,917.162,VALID,0,VALID,96.8631,VALID,0,VALID,20.5024,VALID,26,VALID,0.435937,
2011-09-14, 02:07:04,VALID,917.191,VALID,0,VALID,96.8707,VALID,0,VALID,20.5024,VALID,26,VALID,0.105078,
2011-09-14, 02:08:04,VALID,917.177,VALID,0,VALID,96.8631,VALID,0,VALID,20.5009,VALID,26,VALID,0.339453,
2011-09-14, 02:09:04,VALID,917.133,VALID,0,VALID,96.9089,VALID,0,VALID,20.5399,VALID,25,VALID,0.593359,
2011-09-14, 02:10:04,VALID,917.125,VALID,0,VALID,96.8936,VALID,0,VALID,20.5414,VALID,26,VALID,0.403125,
2011-09-14, 02:11:04,VALID,917.184,VALID,0,VALID,96.8936,VALID,0,VALID,20.5009,VALID,26,VALID,0.377344,
2011-09-14, 02:12:04,VALID,917.163,VALID,0,VALID,96.886,VALID,0,VALID,20.5009,VALID,26,VALID,0.355078,
2011-09-14, 02:13:04,VALID,917.144,VALID,0,VALID,96.886,VALID,0,VALID,20.5219,VALID,26,VALID,0.847656,
2011-09-14, 02:14:04,VALID,917.15,VALID,0,VALID,96.9165,VALID,0,VALID,20.5609,VALID,26,VALID,0.148828,
2011-09-14, 02:15:04,VALID,917.168,VALID,0,VALID,96.9317,VALID,0,VALID,20.5609,VALID,26,VALID,0.199609,
2011-09-14, 02:16:04,VALID,917.144,VALID,0,VALID,96.9012,VALID,0,VALID,20.5609,VALID,26,VALID,0.346875,
2011-09-14, 02:17:04,VALID,917.147,VALID,0,VALID,96.9241,VALID,0,VALID,20.5399,VALID,26,VALID,0.282422,
2011-09-14, 02:18:04,VALID,917.133,VALID,0,VALID,96.9089,VALID,0,VALID,20.5399,VALID,26,VALID,0.386719,
2011-09-14, 02:19:04,VALID,917.15,VALID,0,VALID,96.9317,VALID,0,VALID,20.5399,VALID,26,VALID,0.00195313,
2011-09-14, 02:20:04,VALID,917.114,VALID,0,VALID,96.947,VALID,0,VALID,20.5399,VALID,26,VALID,0,
2011-09-14, 02:21:04,VALID,917.122,VALID,0,VALID,96.947,VALID,0,VALID,20.5804,VALID,26,VALID,0.304688,
2011-09-14, 02:22:04,VALID,917.121,VALID,0,VALID,96.9394,VALID,0,VALID,20.5594,VALID,26,VALID,0.412109,
2011-09-14, 02:23:04,VALID,917.093,VALID,0,VALID,96.9546,VALID,0,VALID,20.5414,VALID,26,VALID,0.426562,
2011-09-14, 02:24:04,VALID,917.075,VALID,0,VALID,96.947,VALID,0,VALID,20.5399,VALID,26,VALID,0.0636719,
2011-09-14, 02:25:04,VALID,917.062,VALID,0,VALID,96.9775,VALID,0,VALID,20.5804,VALID,26,VALID,0.291016,
2011-09-14, 02:26:04,VALID,917.032,VALID,0,VALID,96.9622,VALID,0,VALID,20.5594,VALID,26,VALID,0.423438,
2011-09-14, 02:27:04,VALID,917.048,VALID,0,VALID,96.947,VALID,0,VALID,20.5804,VALID,26,VALID,0.275,
2011-09-14, 02:28:04,VALID,917.008,VALID,0,VALID,96.9546,VALID,0,VALID,20.5399,VALID,25,VALID,0.405078,
2011-09-14, 02:29:04,VALID,917.018,VALID,0,VALID,96.9851,VALID,0,VALID,20.5609,VALID,25,VALID,0.172266,
2011-09-14, 02:30:04,VALID,917.017,VALID,0,VALID,96.9698,VALID,0.107441,VALID,20.5594,VALID,25,VALID,0,
2011-09-14, 02:31:04,VALID,917.015,VALID,0,VALID,96.9622,VALID,0,VALID,20.5789,VALID,26,VALID,0.383594,
2011-09-14, 02:32:04,VALID,917.014,VALID,0,VALID,96.9698,VALID,0,VALID,20.5804,VALID,26,VALID,0.405078,
2011-09-14, 02:33:04,VALID,917.013,VALID,0,VALID,97.0003,VALID,0,VALID,20.5999,VALID,26,VALID,0.430859,
2011-09-14, 02:34:04,VALID,917.042,VALID,0,VALID,96.9927,VALID,0,VALID,20.5999,VALID,26,VALID,0.476953,
2011-09-14, 02:35:04,VALID,917.016,VALID,0,VALID,97.0156,VALID,0,VALID,20.6194,VALID,26,VALID,0.214844,
2011-09-14, 02:36:04,VALID,917.007,VALID,0,VALID,97.0156,VALID,0.107441,VALID,20.639,VALID,26,VALID,0.530469,
2011-09-14, 02:37:04,VALID,917.008,VALID,0,VALID,97.008,VALID,0,VALID,20.6179,VALID,26,VALID,0.502344,
2011-09-14, 02:38:04,VALID,916.976,VALID,0,VALID,97.0232,VALID,0,VALID,20.639,VALID,26,VALID,0.588281,
2011-09-14, 02:39:04,VALID,916.978,VALID,0,VALID,97.0156,VALID,0,VALID,20.639,VALID,25,VALID,0.609766,
2011-09-14, 02:40:04,VALID,916.966,VALID,0,VALID,97.008,VALID,0,VALID,20.6179,VALID,25,VALID,0.442578,
2011-09-14, 02:41:04,VALID,916.932,VALID,0,VALID,97.0003,VALID,0,VALID,20.5789,VALID,26,VALID,0.5875,
2011-09-14, 02:42:04,VALID,916.967,VALID,0,VALID,96.9851,VALID,0,VALID,20.5804,VALID,26,VALID,0.357031,
2011-09-14, 02:43:04,VALID,916.955,VALID,0,VALID,97.008,VALID,0,VALID,20.5399,VALID,26,VALID,0.00585938,
2011-09-14, 02:44:04,VALID,916.9,VALID,0,VALID,97.0232,VALID,0,VALID,20.5399,VALID,26,VALID,0.237891,
2011-09-14, 02:45:04,VALID,916.892,VALID,0,VALID,97.0232,VALID,0,VALID,20.5399,VALID,26,VALID,0,
2011-09-14, 02:46:04,VALID,916.878,VALID,0,VALID,97.008,VALID,0.107441,VALID,20.5399,VALID,26,VALID,0.0046875,
2011-09-14, 02:47:04,VALID,916.868,VALID,0,VALID,97.0156,VALID,0,VALID,20.5204,VALID,26,VALID,0.279687,
2011-09-14, 02:48:04,VALID,916.872,VALID,0,VALID,97.008,VALID,0,VALID,20.5204,VALID,25,VALID,0.442187,
2011-09-14, 02:49:04,VALID,916.864,VALID,0,VALID,97.0461,VALID,0,VALID,20.5009,VALID,26,VALID,0.590234,
2011-09-14, 02:50:04,VALID,916.868,VALID,0,VALID,97.0156,VALID,0,VALID,20.5009,VALID,25,VALID,0.503906,
2011-09-14, 02:51:04,VALID,916.832,VALID,0,VALID,97.0156,VALID,0.107441,VALID,20.5009,VALID,26,VALID,0.433203,
2011-09-14, 02:52:04,VALID,916.825,VALID,0,VALID,97.0308,VALID,0.107441,VALID,20.4813,VALID,25,VALID,0.455469,
2011-09-14, 02:53:04,VALID,916.824,VALID,0,VALID,97.0537,VALID,0.107441,VALID,20.5009,VALID,25,VALID,0.0796875,
2011-09-14, 02:54:04,VALID,916.862,VALID,0,VALID,97.0537,VALID,0.107441,VALID,20.5009,VALID,26,VALID,0,
2011-09-14, 02:55:04,VALID,916.852,VALID,0,VALID,97.0537,VALID,0,VALID,20.5219,VALID,26,VALID,0,
2011-09-14, 02:56:04,VALID,916.852,VALID,0,VALID,97.0766,VALID,0,VALID,20.5219,VALID,25,VALID,0,
2011-09-14, 02:57:04,VALID,916.846,VALID,0,VALID,97.069,VALID,0,VALID,20.5414,VALID,25,VALID,0,
2011-09-14, 02:58:04,VALID,916.877,VALID,0,VALID,97.0766,VALID,0,VALID,20.5609,VALID,26,VALID,0.375391,
2011-09-14, 02:59:04,VALID,916.886,VALID,0,VALID,97.069,VALID,0,VALID,20.5414,VALID,25,VALID,0.0277344,
2011-09-14, 03:00:04,VALID,916.889,VALID,0,VALID,97.069,VALID,0,VALID,20.5414,VALID,25,VALID,0.155859,
2011-09-14, 03:01:04,VALID,916.928,VALID,0,VALID,97.0918,VALID,0,VALID,20.5414,VALID,26,VALID,0.495313,
2011-09-14, 03:02:04,VALID,916.963,VALID,0,VALID,97.0842,VALID,0,VALID,20.5804,VALID,25,VALID,0.620313,
2011-09-14, 03:03:04,VALID,916.968,VALID,0,VALID,97.0842,VALID,0,VALID,20.5804,VALID,25,VALID,0.804688,
2011-09-14, 03:04:04,VALID,917.009,VALID,0,VALID,97.069,VALID,0,VALID,20.5609,VALID,25,VALID,0.778125,
2011-09-14, 03:05:04,VALID,916.953,VALID,0,VALID,97.0842,VALID,0,VALID,20.5414,VALID,15,VALID,1.21133,
2011-09-14, 03:06:04,VALID,916.999,VALID,0,VALID,97.0537,VALID,0,VALID,20.5219,VALID,15,VALID,0.7375,
2011-09-14, 03:07:04,VALID,916.98,VALID,0,VALID,97.0842,VALID,0,VALID,20.5219,VALID,15,VALID,0.796484,
2011-09-14, 03:08:04,VALID,916.953,VALID,0,VALID,97.0842,VALID,0,VALID,20.5625,VALID,15,VALID,0.696094,
2011-09-14, 03:09:04,VALID,916.946,VALID,0,VALID,97.0918,VALID,0,VALID,20.5219,VALID,15,VALID,0.526172,
2011-09-14, 03:10:04,VALID,916.928,VALID,0,VALID,97.0842,VALID,0,VALID,20.5204,VALID,15,VALID,0.627734,
2011-09-14, 03:11:04,VALID,916.932,VALID,0,VALID,97.0994,VALID,0,VALID,20.5399,VALID,15,VALID,0.271094,
2011-09-14, 03:12:04,VALID,916.94,VALID,0,VALID,97.1223,VALID,0,VALID,20.5399,VALID,15,VALID,0.582812,
2011-09-14, 03:13:04,VALID,916.918,VALID,0,VALID,97.1299,VALID,0,VALID,20.5609,VALID,15,VALID,0.804297,
2011-09-14, 03:14:04,VALID,916.968,VALID,0,VALID,97.1147,VALID,0,VALID,20.5204,VALID,28,VALID,1.50117,
2011-09-14, 03:15:04,VALID,916.973,VALID,0,VALID,97.1147,VALID,0,VALID,20.5009,VALID,13,VALID,0.713672,
2011-09-14, 03:16:04,VALID,916.936,VALID,0,VALID,97.1071,VALID,0.107441,VALID,20.5009,VALID,14,VALID,0.403516,
2011-09-14, 03:17:04,VALID,916.956,VALID,0,VALID,97.1299,VALID,0,VALID,20.5399,VALID,14,VALID,0.600391,
2011-09-14, 03:18:04,VALID,917.018,VALID,0,VALID,97.1223,VALID,0,VALID,20.5414,VALID,14,VALID,0.957422,
2011-09-14, 03:19:04,VALID,917.017,VALID,0,VALID,97.1223,VALID,0,VALID,20.5204,VALID,14,VALID,1.13516,
2011-09-14, 03:20:04,VALID,917.049,VALID,0,VALID,97.1376,VALID,0,VALID,20.4813,VALID,14,VALID,0.941797,
2011-09-14, 03:21:04,VALID,917.037,VALID,0,VALID,97.1299,VALID,0,VALID,20.4813,VALID,14,VALID,0.709766,
2011-09-14, 03:22:04,VALID,917.067,VALID,0,VALID,97.1223,VALID,0,VALID,20.4618,VALID,14,VALID,0.651953,
2011-09-14, 03:23:04,VALID,917.081,VALID,0,VALID,97.1299,VALID,0,VALID,20.4618,VALID,14,VALID,0.678906,
2011-09-14, 03:24:04,VALID,917.113,VALID,0,VALID,97.1452,VALID,0.107441,VALID,20.4618,VALID,14,VALID,0.58125,
2011-09-14, 03:25:04,VALID,917.126,VALID,0,VALID,97.1376,VALID,0,VALID,20.4423,VALID,14,VALID,0.455859,
2011-09-14, 03:26:04,VALID,917.118,VALID,0,VALID,97.1376,VALID,0.107441,VALID,20.4423,VALID,14,VALID,0.457422,
2011-09-14, 03:27:04,VALID,917.153,VALID,0,VALID,97.1452,VALID,0.107441,VALID,20.4228,VALID,14,VALID,0.0382813,
2011-09-14, 03:28:04,VALID,917.131,VALID,0,VALID,97.1452,VALID,0,VALID,20.4439,VALID,14,VALID,0.0617188,
2011-09-14, 03:29:04,VALID,917.13,VALID,0,VALID,97.1604,VALID,0,VALID,20.4423,VALID,14,VALID,0.100781,
2011-09-14, 03:30:04,VALID,917.1,VALID,0,VALID,97.1376,VALID,0.107441,VALID,20.4423,VALID,14,VALID,0.406641,
2011-09-14, 03:31:04,VALID,917.083,VALID,0,VALID,97.1604,VALID,0.107441,VALID,20.4423,VALID,14,VALID,0.301172,
2011-09-14, 03:32:04,VALID,917.068,VALID,0,VALID,97.1528,VALID,0,VALID,20.4618,VALID,14,VALID,0.461328,
2011-09-14, 03:33:04,VALID,917.088,VALID,0,VALID,97.1528,VALID,0,VALID,20.4423,VALID,14,VALID,0.385547,
2011-09-14, 03:34:04,VALID,917.042,VALID,0,VALID,97.1604,VALID,0.107441,VALID,20.4423,VALID,14,VALID,0.20625,
2011-09-14, 03:35:04,VALID,917.066,VALID,0,VALID,97.1757,VALID,0,VALID,20.4618,VALID,14,VALID,0.0253906,
2011-09-14, 03:36:04,VALID,917.025,VALID,0,VALID,97.1604,VALID,0,VALID,20.4618,VALID,13,VALID,0,
2011-09-14, 03:37:04,VALID,916.996,VALID,0,VALID,97.1681,VALID,0,VALID,20.4618,VALID,14,VALID,0,
2011-09-14, 03:38:04,VALID,916.973,VALID,0,VALID,97.1604,VALID,0,VALID,20.4618,VALID,14,VALID,0.329297,
2011-09-14, 03:39:04,VALID,916.945,VALID,0,VALID,97.1528,VALID,0,VALID,20.4618,VALID,14,VALID,0.305469,
2011-09-14, 03:40:04,VALID,916.893,VALID,0,VALID,97.1528,VALID,0,VALID,20.4634,VALID,14,VALID,0.178906,
2011-09-14, 03:41:04,VALID,916.868,VALID,0,VALID,97.1452,VALID,0,VALID,20.4634,VALID,14,VALID,0.354688,
2011-09-14, 03:42:04,VALID,916.845,VALID,0,VALID,97.1681,VALID,0,VALID,20.4845,VALID,14,VALID,0.281641,
2011-09-14, 03:43:04,VALID,916.856,VALID,0,VALID,97.1528,VALID,0,VALID,20.4634,VALID,14,VALID,0.284375,
2011-09-14, 03:44:04,VALID,916.847,VALID,0,VALID,97.1452,VALID,0,VALID,20.4634,VALID,14,VALID,0.282422,
2011-09-14, 03:45:04,VALID,916.823,VALID,0,VALID,97.1528,VALID,0,VALID,20.4439,VALID,14,VALID,0.278516,